Hourly Weather Bolshie Korshuny

Today, 31 July, Saturday

Time Temperature Precipitation Wind Pressure Humidity
00:00 +20°C° 0 mm 2 mps 740 mmHg 70%
01:00 +19°C° 0.7 mm 2 mps 740 mmHg 78%
02:00 +19°C° 0.7 mm 2 mps 740 mmHg 85%
03:00 +18°C° 0.7 mm 2 mps 740 mmHg 93%
04:00 +18°C° 1.7 mm 2 mps 739 mmHg 95%
05:00 +18°C° 1.7 mm 2 mps 739 mmHg 97%
06:00 +18°C° 1.7 mm 2 mps 739 mmHg 99%
07:00 +19°C° 0.4 mm 2 mps 738 mmHg 95%
08:00 +20°C° 0.4 mm 3 mps 738 mmHg 92%
09:00 +21°C° 0.4 mm 3 mps 738 mmHg 89%
10:00 +22°C° 0.5 mm 4 mps 738 mmHg 85%
11:00 +22°C° 0.5 mm 5 mps 738 mmHg 81%
12:00 +23°C° 0.5 mm 6 mps 738 mmHg 77%
13:00 +24°C° 0 mm 6 mps 738 mmHg 72%
14:00 +26°C° 0 mm 6 mps 738 mmHg 67%
15:00 +27°C° 0 mm 6 mps 738 mmHg 62%
16:00 +26°C° 0.3 mm 5 mps 739 mmHg 67%
17:00 +25°C° 0.3 mm 5 mps 739 mmHg 73%
18:00 +23°C° 0.3 mm 4 mps 739 mmHg 78%
19:00 +22°C° 0.2 mm 4 mps 740 mmHg 80%
20:00 +21°C° 0.2 mm 4 mps 740 mmHg 82%
21:00 +19°C° 0.2 mm 4 mps 740 mmHg 84%
22:00 +19°C° 0 mm 3 mps 741 mmHg 85%
23:00 +18°C° 0 mm 3 mps 741 mmHg 86%

Tomorrow, 1 August, Sunday

Time Temperature Precipitation Wind Pressure Humidity
00:00 +17°C° 0 mm 3 mps 741 mmHg 87%
01:00 +17°C° 0 mm 4 mps 741 mmHg 86%
02:00 +17°C° 0 mm 4 mps 742 mmHg 85%
03:00 +17°C° 0 mm 4 mps 742 mmHg 84%
04:00 +17°C° 0 mm 4 mps 742 mmHg 82%
05:00 +17°C° 0 mm 3 mps 743 mmHg 79%
06:00 +18°C° 0 mm 3 mps 743 mmHg 77%
07:00 +20°C° 0 mm 4 mps 744 mmHg 69%
08:00 +22°C° 0 mm 5 mps 744 mmHg 60%
09:00 +23°C° 0 mm 6 mps 744 mmHg 52%
10:00 +24°C° 0 mm 6 mps 744 mmHg 48%
11:00 +26°C° 0 mm 6 mps 745 mmHg 44%
12:00 +27°C° 0 mm 6 mps 745 mmHg 40%
13:00 +27°C° 0 mm 6 mps 745 mmHg 41%
14:00 +27°C° 0 mm 6 mps 745 mmHg 41%
15:00 +28°C° 0 mm 5 mps 745 mmHg 41%
16:00 +27°C° 0 mm 4 mps 745 mmHg 46%
17:00 +26°C° 0 mm 3 mps 745 mmHg 51%
18:00 +25°C° 0 mm 2 mps 745 mmHg 57%
19:00 +24°C° 0 mm 2 mps 745 mmHg 60%
20:00 +23°C° 0 mm 2 mps 745 mmHg 64%
21:00 +21°C° 0 mm 2 mps 746 mmHg 67%
22:00 +20°C° 0 mm 2 mps 746 mmHg 67%
23:00 +20°C° 0 mm 2 mps 746 mmHg 68%

Day after tomorrow, 2 August, Monday

Time Temperature Precipitation Wind Pressure Humidity
00:00 +20°C° 0 mm 3 mps 746 mmHg 68%
01:00 +20°C° 0 mm 3 mps 746 mmHg 68%
02:00 +20°C° 0 mm 3 mps 746 mmHg 67%
03:00 +20°C° 0 mm 3 mps 746 mmHg 67%
04:00 +20°C° 0 mm 3 mps 746 mmHg 68%
05:00 +20°C° 0 mm 3 mps 746 mmHg 69%
06:00 +20°C° 0 mm 3 mps 746 mmHg 70%
07:00 +22°C° 0 mm 4 mps 746 mmHg 63%
08:00 +25°C° 0 mm 5 mps 746 mmHg 56%
09:00 +27°C° 0 mm 6 mps 746 mmHg 50%
10:00 +28°C° 0 mm 6 mps 746 mmHg 47%
11:00 +29°C° 0 mm 6 mps 745 mmHg 44%
12:00 +32°C° 0 mm 6 mps 745 mmHg 42%
13:00 +29°C° 0.1 mm 5 mps 745 mmHg 49%
14:00 +28°C° 0.1 mm 4 mps 746 mmHg 56%
15:00 +26°C° 0.1 mm 3 mps 746 mmHg 63%
16:00 +26°C° 0 mm 3 mps 746 mmHg 63%
17:00 +27°C° 0 mm 2 mps 745 mmHg 64%
18:00 +27°C° 0 mm 2 mps 745 mmHg 64%
19:00 +25°C° 0.1 mm 2 mps 745 mmHg 69%
20:00 +24°C° 0.1 mm 2 mps 745 mmHg 74%
21:00 +21°C° 0.1 mm 2 mps 745 mmHg 78%
22:00 +21°C° 0 mm 2 mps 745 mmHg 80%
23:00 +20°C° 0 mm 2 mps 745 mmHg 82%

3 August, Tuesday

Time Temperature Precipitation Wind Pressure Humidity
00:00 +20°C° 0 mm 3 mps 745 mmHg 83%
01:00 +20°C° 0 mm 3 mps 744 mmHg 81%
02:00 +19°C° 0 mm 3 mps 744 mmHg 80%
03:00 +19°C° 0 mm 3 mps 744 mmHg 78%
04:00 +20°C° 0.1 mm 3 mps 744 mmHg 75%
05:00 +21°C° 0.1 mm 3 mps 744 mmHg 72%
06:00 +21°C° 0.1 mm 4 mps 743 mmHg 69%
07:00 +23°C° 0 mm 4 mps 743 mmHg 63%
08:00 +26°C° 0 mm 4 mps 743 mmHg 56%
09:00 +27°C° 0 mm 5 mps 743 mmHg 50%
10:00 +29°C° 0 mm 5 mps 743 mmHg 45%
11:00 +33°C° 0 mm 5 mps 743 mmHg 40%
12:00 +35°C° 0 mm 5 mps 742 mmHg 34%
13:00 +35°C° 0 mm 6 mps 742 mmHg 33%
14:00 +36°C° 0 mm 6 mps 742 mmHg 32%
15:00 +36°C° 0 mm 6 mps 742 mmHg 31%
16:00 +33°C° 0.3 mm 7 mps 742 mmHg 43%
17:00 +29°C° 0.3 mm 9 mps 742 mmHg 56%
18:00 +26°C° 0.3 mm 10 mps 742 mmHg 68%
19:00 +23°C° 0.2 mm 7 mps 743 mmHg 72%
20:00 +22°C° 0.2 mm 5 mps 743 mmHg 75%
21:00 +21°C° 0.2 mm 3 mps 743 mmHg 79%
22:00 +21°C° 0 mm 2 mps 743 mmHg 82%
23:00 +20°C° 0 mm 2 mps 743 mmHg 85%

4 August, Wednesday

Time Temperature Precipitation Wind Pressure Humidity
00:00 +21°C° 0 mm 1 mps 743 mmHg 88%
01:00 +20°C° 0.1 mm 1 mps 743 mmHg 89%
02:00 +20°C° 0.1 mm 1 mps 744 mmHg 90%
03:00 +20°C° 0.1 mm 1 mps 744 mmHg 91%
04:00 +20°C° 0 mm 1 mps 744 mmHg 88%
05:00 +20°C° 0 mm 2 mps 744 mmHg 85%
06:00 +21°C° 0 mm 2 mps 744 mmHg 83%
07:00 +23°C° 0 mm 2 mps 744 mmHg 79%
08:00 +23°C° 0 mm 2 mps 744 mmHg 75%
09:00 +24°C° 0 mm 2 mps 744 mmHg 72%
10:00 +25°C° 0 mm 2 mps 744 mmHg 68%
11:00 +25°C° 0 mm 2 mps 744 mmHg 64%
12:00 +26°C° 0 mm 2 mps 744 mmHg 60%
13:00 +27°C° 0 mm 2 mps 744 mmHg 56%
14:00 +28°C° 0 mm 2 mps 744 mmHg 52%
15:00 +29°C° 0 mm 3 mps 744 mmHg 47%
16:00 +28°C° 0 mm 2 mps 744 mmHg 51%
17:00 +28°C° 0 mm 2 mps 744 mmHg 54%
18:00 +27°C° 0 mm 2 mps 743 mmHg 57%
19:00 +25°C° 0.5 mm 2 mps 744 mmHg 67%
20:00 +21°C° 0.5 mm 2 mps 744 mmHg 77%
21:00 +19°C° 0.5 mm 2 mps 744 mmHg 87%
22:00 +19°C° 0 mm 2 mps 744 mmHg 88%
23:00 +18°C° 0 mm 2 mps 744 mmHg 88%

5 August, Thursday

Time Temperature Precipitation Wind Pressure Humidity
00:00 +18°C° 0 mm 2 mps 744 mmHg 89%
01:00 +17°C° 0 mm 2 mps 744 mmHg 90%
02:00 +17°C° 0 mm 2 mps 744 mmHg 91%
03:00 +16°C° 0 mm 2 mps 744 mmHg 92%
04:00 +17°C° 0 mm 2 mps 744 mmHg 91%
05:00 +17°C° 0 mm 2 mps 744 mmHg 89%
06:00 +18°C° 0 mm 3 mps 744 mmHg 88%
07:00 +19°C° 0 mm 3 mps 744 mmHg 85%
08:00 +20°C° 0 mm 4 mps 745 mmHg 83%
09:00 +20°C° 0 mm 4 mps 745 mmHg 80%
10:00 +20°C° 0.2 mm 4 mps 745 mmHg 83%
11:00 +19°C° 0.2 mm 5 mps 745 mmHg 85%
12:00 +19°C° 0.2 mm 5 mps 745 mmHg 87%
13:00 +19°C° 0 mm 5 mps 746 mmHg 85%
14:00 +19°C° 0 mm 5 mps 746 mmHg 84%
15:00 +19°C° 0 mm 5 mps 746 mmHg 82%
16:00 +19°C° 0 mm 5 mps 746 mmHg 81%
17:00 +19°C° 0 mm 4 mps 746 mmHg 81%
18:00 +19°C° 0 mm 3 mps 746 mmHg 80%
19:00 +18°C° 0 mm 3 mps 747 mmHg 80%
20:00 +18°C° 0 mm 3 mps 747 mmHg 81%
21:00 +18°C° 0 mm 3 mps 747 mmHg 81%
22:00 +17°C° 0 mm 3 mps 747 mmHg 83%
23:00 +16°C° 0 mm 3 mps 747 mmHg 85%
Show more

We Need Your Consent

Meteoprog and our Service Providers may store and access personal data such as cookies, device identifiers or other similar technologies on your device and process such data to personalise content and ads, as well as provide social media features and to analyse the traffic.

  • Store and/or access information on your device

    Cookies, device identifiers or other information can be stored or accessed on your device for the purposes indicated above.

  • Personalised ads and content, ad and content measurement, audience insights, and products development

    Ads and content can be personalised based on a profile. More data can be added to better personalise ads and content. Ad and content performance can be measured. Insights about the audience who saw the ads and content can be derived. Such data can be used to develop or improve user’s experience, systems and software.

By clicking ‘I Agree’ you will allow the use of indicated cookies, device identifiers, web beacons or other similar technologies. Your settings can be changed in the browser on your device.

For certain purposes, legitimate interests may be relied on, rather than consent. You can read more about this in our Privacy and Cookie Policy.